Location: Cruquius
(52.3348°N, 4.6319°E)
Time: 22:57:34
(UTC+00:00)

Cosmos 1833 Rocket - Pass Details

Date: 12 May 2021
Orbit: 831 x 841 km, 71.0° (Epoch: 24 June)

Event Time Altitude Azimuth Distance (km) Brightness Sun altitude
Rises 20:37:55 0° 327° (NNW) 3,408 7.9 -9.3°
Reaches altitude 10° 20:40:22 10° 325° (NW) 2,469 6.8 -9.5°
Maximum altitude 20:45:59 66° 245° (WSW) 920 3.0 -10.1°
Enters shadow 20:51:23 11° 164° (SSE) 2,391 4.5 -10.6°
